Tracking 23446 objects as of 20-Jun-2021
HD Live streaming from Space Station
objects crossing your sky now

ONEWEB-0246

Track ONEWEB-0246 now!
10-day predictions
ONEWEB-0246 is classified as:


NORAD ID: 48786
Int'l Code: 2021-045V
Perigee: 489.6 km
Apogee: 499.1 km
Inclination: 87.4 °
Period: 94.4 minutes
Semi major axis: 6865 km
RCS: Unknown
Launch date: May 28, 2021
Source: United Kingdom (UK)
Launch site: VOSTOCHNY COSMODROME (VOSTO)
aabbcc
Your satellite tracking list
Your tracking list is empty




NASA's NSSDC Master Catalog

Two Line Element Set (TLE):
1 48786U 21045V   21171.41667824 -.01001954  00000-0 -42090-1 0  9993
2 48786  87.4047 268.6108 0006895 182.8193 343.5844 15.26195474  4757
Source of the keplerian elements: AFSPC